This is the latest recevied weather packets stored in our database for station/object W1ERB-13. If no packets are shown the sender has not sent any weather packets the latest 10 day(s).
| Time | Temp. | Humidity | Pressure | Rain* | Wind** | Luminosity | Snow |
|---|---|---|---|---|---|---|---|
| 1778106434 | 13.89° C | 98% | 1006.2 hPa | 0 mm | - | 25 W/m² | - |
| 1778106129 | 13.89° C | 98% | 1006.1 hPa | 0 mm | - | 28 W/m² | - |
| 1778105828 | 13.89° C | 98% | 1006.1 hPa | 0 mm | - | 29 W/m² | - |
| 1778105526 | 13.89° C | 98% | 1006.3 hPa | 0 mm | - | 27 W/m² | - |
| 1778105222 | 13.89° C | 98% | 1006 hPa | 0 mm | - | 28 W/m² | - |
| 1778104917 | 13.89° C | 98% | 1006.4 hPa | 0 mm | - | 25 W/m² | - |
| 1778104614 | 13.89° C | 98% | 1006.6 hPa | 0 mm | - | 27 W/m² | - |
| 1778104309 | 13.89° C | 97% | 1006.3 hPa | 0 mm | - | 21 W/m² | - |
| 1778104006 | 13.89° C | 97% | 1006 hPa | 0 mm | - | 23 W/m² | - |
| 1778103704 | 14.44° C | 97% | 1006.2 hPa | 0 mm | - | 28 W/m² | - |
| 1778103402 | 14.44° C | 97% | 1006 hPa | 0 mm | - | 30 W/m² | - |
| 1778103099 | 14.44° C | 97% | 1006.1 hPa | 0 mm | - | 30 W/m² | - |
| 1778102796 | 14.44° C | 97% | 1006.3 hPa | 0 mm | - | 25 W/m² | - |
| 1778102491 | 14.44° C | 97% | 1006.2 hPa | 0 mm | - | 36 W/m² | - |
| 1778102187 | 14.44° C | 97% | 1006.2 hPa | 0 mm | - | 45 W/m² | - |
| 1778101884 | 14.44° C | 97% | 1006.3 hPa | 0 mm | - | 47 W/m² | - |
| 1778101581 | 14.44° C | 97% | 1006.1 hPa | 0 mm | - | 82 W/m² | - |
| 1778101277 | 14.44° C | 97% | 1006.3 hPa | 0 mm | - | 110 W/m² | - |
| 1778100974 | 14.44° C | 97% | 1006.3 hPa | 1.27 mm | - | 125 W/m² | - |
| 1778100669 | 14.44° C | 97% | 1006.5 hPa | 1.27 mm | - | 90 W/m² | - |
| 1778100367 | 14.44° C | 97% | 1006.3 hPa | 1.27 mm | - | 107 W/m² | - |
| 1778100064 | 14.44° C | 97% | 1006.6 hPa | 1.78 mm | - | 101 W/m² | - |
| 1778099763 | 14.44° C | 97% | 1006.5 hPa | 1.78 mm | - | 86 W/m² | - |
| 1778099458 | 14.44° C | 97% | 1006.5 hPa | 3.05 mm | - | 92 W/m² | - |
| 1778099156 | 15° C | 96% | 1006.6 hPa | 1.27 mm | - | 72 W/m² | - |
* Rain latest hour (hover to see other rain measurements)
** Current wind speed in m/s (hover to see current wind gust speed)